Weather reports worldwide

Advertisment
Garmisch-Partenkirchen, Germany (10963): temperature & dewpoint: 10.07.2018 18:00:00 - 16.07.2018 18:00:00 (CEST)Garmisch-Partenkirchen, Germany (10963): temperature 5cm & temperature -5cm: 10.07.2018 18:00:00 - 16.07.2018 18:00:00 (CEST)Garmisch-Partenkirchen, Germany (10963): temperature -20cm & temperature -100cm: 10.07.2018 18:00:00 - 16.07.2018 18:00:00 (CEST)Garmisch-Partenkirchen, Germany (10963): wind speed & gusts: 10.07.2018 18:00:00 - 16.07.2018 18:00:00 (CEST)Garmisch-Partenkirchen, Germany (10963): wind direction: 10.07.2018 18:00:00 - 16.07.2018 18:00:00 (CEST)Garmisch-Partenkirchen, Germany (10963): reduced air pressure: 10.07.2018 18:00:00 - 16.07.2018 18:00:00 (CEST)Garmisch-Partenkirchen, Germany (10963): visibility: 10.07.2018 18:00:00 - 16.07.2018 18:00:00 (CEST)Garmisch-Partenkirchen, Germany (10963): sunshine duration: 10.07.2018 18:00:00 - 16.07.2018 18:00:00 (CEST)Garmisch-Partenkirchen, Germany (10963): precipitation: 10.07.2018 18:00:00 - 16.07.2018 18:00:00 (CEST)
Date & Time tt [°C] td [°C] tt 5cm [°C] tt -5cm [°C] tt -20cm [°C] tt -100cm [°C] ff [km/h] ff [kn] fx [km/h] fx [kn] dd ppp [hPa] vv [km] sd [min] rr [mm]
16.07.2018 18:00:00 20,5 14,2 20,1 27,7 24,3 17,5 13 7 31 17 NNE 1010,1 69 34 0,0
16.07.2018 17:00:00 21,9 15,6 23,2 27,9 24,2 17,5 3 2 15 8 NNE 1009,8 69 23 1,6
16.07.2018 16:00:00 21,9 12,4 22,3 28,5 24,0 17,5 8 5 27 15 NE 1010,1 70 14 0,0
16.07.2018 15:00:00 23,5 13,1 28,7 29,1 23,4 17,5 13 7 24 13 ENE 1009,7 66 26 0,0
16.07.2018 14:00:00 21,4 13,5 22,9 30,0 22,6 17,5 14 7 26 14 ENE 1011,1 70 36 0,0
16.07.2018 13:00:00 23,2 13,3 29,0 29,4 21,5 17,4 11 6 20 11 NE 1011,2 66 53 0,0
16.07.2018 12:00:00 22,7 11,5 26,7 26,7 20,5 17,4 5 3 8 5 S 1011,7 50 60 0,0
16.07.2018 11:00:00 20,0 10,9 21,6 23,0 20,0 17,4 3 2 8 4 E 1013,4 70 48 0,0
16.07.2018 10:00:00 16,9 12,2 17,0 19,7 19,8 17,4 3 2 8 5 NE 1015,2 70 5 0,0
16.07.2018 09:00:00 15,6 12,6 15,4 18,6 19,9 17,4 3 1 6 4 SW 1016,0 70 14 0,0
16.07.2018 08:00:00 14,4 12,3 13,9 17,7 20,1 17,4 3 1 9 5 WSW 1016,3 70 3 0,0
16.07.2018 07:00:00 13,6 12,2 12,7 17,5 20,3 17,4 3 2 6 3 NE 1016,2 70 0 0,0
16.07.2018 06:00:00 13,0 12,2 12,9 17,7 20,6 17,4 4 2 7 4 S 1016,3 33 0 0,0
16.07.2018 05:00:00 12,9 11,8 13,1 17,9 21,0 17,4 3 2 9 5 SW 1016,3 51 0 0,0
16.07.2018 04:00:00 12,9 12,0 12,6 18,2 21,4 17,4 3 2 9 5 SSW 1016,5 42 0 0,0
16.07.2018 03:00:00 13,3 12,2 13,1 18,5 21,8 17,3 2 1 7 4 ESE 1016,8 54 0 0,0
16.07.2018 02:00:00 13,2 12,0 12,9 18,7 22,3 17,3 4 2 9 5 WSW 1017,1 50 0 0,0
16.07.2018 01:00:00 12,8 12,1 12,2 19,2 22,9 17,3 2 1 13 7 E 1017,3 34 0 0,0
16.07.2018 00:00:00 13,3 12,3 12,7 20,2 23,5 17,3 6 3 13 7 SSW 1016,9 39 0 0,0
15.07.2018 23:00:00 14,9 13,8 14,0 21,4 24,2 17,3 3 2 15 8 WNW 1016,0 34 0 0,0
15.07.2018 22:00:00 15,9 13,6 15,2 22,6 24,8 17,3 9 5 20 11 SSW 1016,3 48 0 0,5
15.07.2018 21:00:00 16,7 14,0 16,2 23,9 25,4 17,3 5 3 11 6 SSW 1016,0 17 0 0,0
15.07.2018 20:00:00 17,5 14,2 17,0 25,4 25,9 17,3 5 3 19 11 NE 1015,3 47 8 0,0
15.07.2018 19:00:00 17,8 15,1 19,6 27,1 26,3 17,3 9 5 29 16 ESE 1015,3 34 8 0,1
15.07.2018 18:00:00 17,6 14,3 17,7 30,0 26,3 17,3 7 4 35 19 NNE 1014,2 36 2 2,2
15.07.2018 17:00:00 25,0 12,8 31,2 33,9 25,7 17,2 10 6 25 13 NNE 1011,6 64 57 0,0
15.07.2018 16:00:00 25,4 11,3 32,2 32,9 25,0 17,2 10 6 22 12 NE 1011,7 68 42 0,0
15.07.2018 15:00:00 25,4 10,9 31,6 32,5 24,1 17,2 6 3 13 7 SW 1012,2 70 43 0,0
15.07.2018 14:00:00 25,0 9,6 31,6 32,1 23,0 17,2 8 4 16 9 NNE 1012,9 51 57 0,0
15.07.2018 13:00:00 23,7 12,2 27,9 29,7 21,9 17,2 6 3 13 7 SE 1014,0 69 60 0,0
15.07.2018 12:00:00 21,8 12,9 23,4 26,0 21,2 17,2 5 3 9 5 S 1015,3 50 46 0,0
15.07.2018 11:00:00 19,1 13,8 19,8 22,3 21,0 17,2 5 3 10 6 SSE 1016,7 67 7 0,0
15.07.2018 10:00:00 16,8 14,1 17,0 20,3 21,0 17,1 3 2 9 5 W 1017,5 57 1 0,0
15.07.2018 09:00:00 15,9 13,8 16,4 19,8 21,1 17,1 5 3 9 5 SSW 1017,8 36 0 0,0
15.07.2018 08:00:00 15,2 13,8 15,2 19,2 21,4 17,1 2 1 10 5 W 1017,9 51 1 0,0
15.07.2018 07:00:00 14,1 13,5 14,0 19,0 21,7 17,1 3 2 10 5 WSW 1018,3 10 0 0,1
15.07.2018 06:00:00 14,6 13,6 14,2 19,4 22,1 17,1 2 1 18 10 NE 1018,3 11 0 1,8
15.07.2018 05:00:00 14,4 13,2 14,3 19,9 22,5 17,1 6 4 12 6 SSW 1017,2 9 0 0,0
15.07.2018 04:00:00 14,0 12,8 14,1 20,1 22,9 17,1 0 0 9 5 N 1017,3 24 0 0,0
15.07.2018 03:00:00 13,1 12,2 13,0 20,6 23,4 17,1 5 3 8 4 SW 1017,7 13 0 0,0
15.07.2018 02:00:00 13,9 12,9 13,3 21,4 23,9 17,1 4 2 9 5 WSW 1017,7 19 0 0,0
15.07.2018 01:00:00 14,6 13,2 14,1 22,3 24,4 17,0 3 2 5 3 WSW 1017,8 17 0 0,0
15.07.2018 00:00:00 15,5 13,6 15,5 23,2 24,9 17,0 3 2 6 3 S 1017,4 24 0 0,0
14.07.2018 23:00:00 16,5 13,8 16,2 24,3 25,5 17,0 2 1 8 5 SSW 1017,2 36 0 0,0
14.07.2018 22:00:00 17,6 13,8 16,6 25,5 26,0 17,0 2 1 9 5 W 1016,8 41 0 0,0
14.07.2018 21:00:00 20,7 13,5 19,5 27,1 26,3 17,0 5 3 20 11 E 1015,2 59 0 0,0
14.07.2018 20:00:00 22,3 13,0 22,4 28,6 26,6 17,0 11 6 27 15 NE 1014,8 54 0 0,0
14.07.2018 19:00:00 23,1 12,9 23,5 30,6 26,6 17,0 16 9 32 17 NE 1014,6 57 11 0,0
14.07.2018 18:00:00 25,3 12,4 27,9 32,3 26,3 17,0 7 4 18 10 NNE 1013,7 70 27 0,0
14.07.2018 17:00:00 25,7 11,9 31,7 32,9 25,8 16,9 7 4 16 8 NE 1013,8 70 36 0,0
14.07.2018 16:00:00 25,0 10,8 28,2 32,2 25,3 16,9 6 3 23 12 SE 1014,7 70 22 0,0
14.07.2018 15:00:00 24,8 11,7 27,6 33,3 24,4 16,9 15 8 28 15 NE 1014,9 70 31 0,0
14.07.2018 14:00:00 25,5 10,7 32,6 32,7 23,3 16,9 11 6 23 12 NE 1015,1 67 40 0,0
14.07.2018 13:00:00 24,9 10,8 29,5 31,7 22,1 16,9 12 7 27 15 NNE 1015,7 48 55 0,0
14.07.2018 12:00:00 25,4 10,4 31,2 28,4 21,1 16,9 5 3 10 5 E 1015,7 58 58 0,0
14.07.2018 11:00:00 23,5 12,5 25,7 24,3 20,4 16,9 3 2 11 6 S 1016,7 70 52 0,0
14.07.2018 10:00:00 20,0 13,7 22,2 20,9 20,2 16,9 4 2 10 5 S 1018,4 62 36 0,0
14.07.2018 09:00:00 16,3 12,7 16,7 18,7 20,4 16,9 2 1 11 6 S 1019,9 47 0 0,0
14.07.2018 08:00:00 14,1 12,1 13,7 18,2 20,6 16,8 4 2 11 6 WSW 1020,6 34 0 0,1
14.07.2018 07:00:00 13,2 11,3 13,0 18,1 20,9 16,8 6 4 15 8 S 1020,5 33 0 0,0
14.07.2018 06:00:00 12,4 10,7 12,4 18,2 21,3 16,8 4 2 8 4 SW 1020,5 36 0 0,0
14.07.2018 05:00:00 12,2 10,7 11,9 18,6 21,8 16,8 4 2 6 4 WSW 1020,3 33 0 0,0
14.07.2018 04:00:00 12,8 10,5 12,0 19,1 22,3 16,8 3 2 9 5 W 1020,4 61 0 0,0
14.07.2018 03:00:00 11,6 10,5 11,7 19,5 22,8 16,8 2 1 13 7 SW 1020,9 34 0 0,0
14.07.2018 02:00:00 11,9 10,6 11,3 20,4 23,4 16,8 5 3 13 7 SW 1020,9 26 0 0,0
14.07.2018 01:00:00 12,5 11,2 12,3 21,4 24,0 16,8 5 3 8 4 SSW 1021,1 30 0 0,0
14.07.2018 00:00:00 13,2 12,0 12,8 22,4 24,6 16,8 2 1 6 3 WSW 1020,6 37 0 0,0
13.07.2018 23:00:00 14,3 12,5 14,0 23,7 25,2 16,8 2 1 6 4 W 1020,2 38 0 0,0
13.07.2018 22:00:00 15,9 13,1 15,1 25,3 25,8 16,8 2 1 5 3 SW 1019,4 44 0 0,0
13.07.2018 21:00:00 18,6 13,1 16,9 27,2 26,3 16,8 3 1 5 3 WNW 1017,9 33 0 0,0
13.07.2018 20:00:00 21,6 12,0 23,1 29,3 26,5 16,8 3 2 13 7 N 1016,7 70 20 0,0
13.07.2018 19:00:00 23,6 10,4 26,4 31,7 26,4 16,8 7 4 19 10 NNE 1016,3 70 52 0,0
13.07.2018 18:00:00 24,1 10,2 27,9 32,5 26,1 16,8 10 6 24 13 NE 1016,2 68 42 0,0
13.07.2018 17:00:00 24,1 11,3 27,1 33,4 25,6 16,8 10 5 26 14 NNE 1016,1 70 24 0,0
13.07.2018 16:00:00 25,1 11,0 31,5 35,1 24,6 16,8 13 7 26 14 NE 1015,9 49 60 0,0
13.07.2018 15:00:00 24,2 10,7 30,2 34,2 23,4 16,7 13 7 27 15 NE 1016,2 60 60 0,0
13.07.2018 14:00:00 24,2 11,7 30,6 32,3 22,3 16,7 13 7 33 18 NE 1016,4 39 56 0,0
13.07.2018 13:00:00 23,8 12,6 29,1 30,1 21,1 16,7 11 6 29 16 NE 1016,7 38 54 0,0
13.07.2018 12:00:00 22,6 10,7 27,5 28,0 20,0 16,7 11 6 23 12 NE 1017,3 39 56 0,0
13.07.2018 11:00:00 21,8 12,0 25,4 25,0 19,0 16,7 8 4 18 10 NE 1017,5 55 58 0,0
13.07.2018 10:00:00 20,3 10,8 23,0 21,2 18,5 16,7 4 2 9 5 S 1018,2 47 60 0,0
13.07.2018 09:00:00 18,3 11,7 18,8 18,0 18,4 16,7 2 1 6 3 SSE 1019,0 55 57 0,0
13.07.2018 08:00:00 13,3 11,2 12,4 16,1 18,6 16,7 3 2 6 3 S 1020,5 33 5 0,0
13.07.2018 07:00:00 11,1 10,5 11,3 15,6 19,0 16,7 3 1 7 4 SW 1021,3 26 0 0,0
13.07.2018 06:00:00 9,7 9,4 9,5 15,5 19,4 16,7 2 1 8 4 SW 1021,8 15 0 0,0
13.07.2018 05:00:00 10,0 9,5 9,4 16,1 19,9 16,7 3 1 11 6 WSW 1021,2 13 0 0,0
13.07.2018 04:00:00 10,2 9,6 9,5 16,8 20,5 16,7 3 2 8 5 SW 1020,9 9 0 0,0
13.07.2018 03:00:00 10,6 10,0 10,0 17,6 21,0 16,7 4 2 9 5 WSW 1020,9 14 0 0,0
13.07.2018 02:00:00 11,0 10,2 10,7 18,5 21,6 16,7 4 2 8 4 SW 1020,7 16 0 0,0
13.07.2018 01:00:00 12,1 11,0 11,4 19,5 22,2 16,7 3 2 7 4 WSW 1020,3 26 0 0,0
13.07.2018 00:00:00 13,9 11,8 12,8 20,8 22,7 16,7 5 3 10 5 SW 1019,7 36 0 0,0
12.07.2018 23:00:00 15,4 12,5 15,0 22,2 23,2 16,7 4 2 7 4 SW 1018,8 45 0 0,0
12.07.2018 22:00:00 16,5 12,5 16,7 23,3 23,7 16,7 3 1 6 4 SW 1018,1 53 0 0,0
12.07.2018 21:00:00 17,9 12,3 17,0 24,8 24,1 16,7 3 2 15 8 NW 1017,1 64 0 0,0
12.07.2018 20:00:00 19,4 11,3 19,2 27,0 24,3 16,7 9 5 20 11 NE 1016,1 70 4 0,0
12.07.2018 19:00:00 20,9 10,9 22,4 29,6 24,1 16,7 9 5 29 16 NE 1015,2 70 56 0,0
12.07.2018 18:00:00 22,0 10,3 25,9 30,6 23,7 16,7 12 7 26 14 NE 1014,4 70 53 0,0
12.07.2018 17:00:00 21,9 9,7 27,0 31,4 23,0 16,8 13 7 29 16 NE 1014,5 70 49 0,0
12.07.2018 16:00:00 23,0 9,6 29,1 31,3 22,1 16,8 11 6 29 16 NNE 1014,3 50 59 0,0
12.07.2018 15:00:00 22,8 10,0 28,6 30,5 21,0 16,8 11 6 34 18 NE 1014,1 43 60 0,0
12.07.2018 14:00:00 21,8 9,8 27,5 28,7 20,0 16,8 14 7 34 19 NE 1014,4 45 60 0,0
12.07.2018 13:00:00 21,0 10,2 25,2 26,9 18,9 16,8 14 8 29 16 NE 1014,7 54 60 0,0
12.07.2018 12:00:00 20,2 10,3 24,3 24,7 17,9 16,8 13 7 25 14 NE 1014,9 52 60 0,0
12.07.2018 11:00:00 19,5 9,4 22,2 22,1 17,1 16,8 10 5 22 12 NE 1015,3 44 60 0,0
12.07.2018 10:00:00 18,2 9,4 19,9 18,7 16,6 16,8 4 2 9 5 ESE 1016,1 43 55 0,0
12.07.2018 09:00:00 15,2 9,2 15,8 15,9 16,4 16,8 3 1 9 5 SE 1017,3 49 44 0,0
12.07.2018 08:00:00 13,9 9,7 11,1 13,8 16,6 16,8 2 1 7 4 SSE 1017,5 34 60 0,0
12.07.2018 07:00:00 9,4 8,5 8,5 13,1 17,0 16,8 4 2 6 3 SW 1018,7 15 16 0,0
12.07.2018 06:00:00 8,3 7,9 7,5 13,4 17,4 16,8 2 1 10 5 SW 1019,1 12 0 0,0
12.07.2018 05:00:00 8,7 8,0 8,0 14,0 17,8 16,8 4 2 11 6 SW 1018,8 11 0 0,0
12.07.2018 04:00:00 9,6 8,5 8,2 14,8 18,2 16,8 5 3 10 6 SSW 1018,9 21 0 0,0
12.07.2018 03:00:00 10,8 8,9 9,7 15,7 18,6 16,8 4 2 11 6 SW 1018,6 32 0 0,0
12.07.2018 02:00:00 11,6 9,6 11,5 16,4 19,0 16,8 4 2 10 5 WSW 1018,4 44 0 0,0
12.07.2018 01:00:00 12,0 10,0 11,9 17,1 19,3 16,8 4 2 9 5 WSW 1018,3 39 0 0,0
12.07.2018 00:00:00 12,5 10,5 12,4 17,6 19,7 16,8 3 2 8 4 SW 1018,3 35 0 0,0
11.07.2018 23:00:00 13,0 10,7 13,1 18,3 20,1 16,8 3 1 8 4 SSW 1017,9 42 0 0,0
11.07.2018 22:00:00 14,4 10,8 13,7 19,1 20,4 16,8 4 2 8 4 WNW 1017,1 59 0 0,0
11.07.2018 21:00:00 15,7 10,3 14,6 20,3 20,7 16,8 2 1 18 10 ESE 1016,1 61 0 0,0
11.07.2018 20:00:00 17,2 9,6 17,2 21,9 20,8 16,8 9 5 19 11 NE 1015,3 61 6 0,0
11.07.2018 19:00:00 18,0 9,0 19,7 22,9 20,8 16,8 7 4 15 8 NE 1014,5 61 18 0,0
11.07.2018 18:00:00 17,8 9,8 18,8 23,7 20,6 16,8 9 5 27 15 NNE 1014,1 64 14 0,0
11.07.2018 17:00:00 18,4 9,6 20,5 24,7 20,1 16,8 12 7 28 15 NE 1013,7 70 21 0,0
11.07.2018 16:00:00 18,8 9,6 23,7 24,1 19,6 16,8 5 3 15 8 N 1013,5 52 30 0,0
11.07.2018 15:00:00 17,3 9,4 20,6 22,0 19,3 16,8 10 5 19 10 NE 1014,3 54 6 0,0
11.07.2018 14:00:00 16,7 9,5 19,1 21,5 19,0 16,8 10 5 22 12 NE 1014,3 50 0 0,0
11.07.2018 13:00:00 16,7 9,8 19,8 21,1 18,6 16,7 7 4 18 10 NE 1014,5 50 5 0,0
11.07.2018 12:00:00 16,6 9,7 18,7 20,7 18,1 16,7 5 3 10 5 N 1014,6 53 12 0,0
11.07.2018 11:00:00 15,0 10,7 16,1 18,6 17,9 16,7 3 2 9 5 WSW 1015,2 30 1 0,0
11.07.2018 10:00:00 13,9 11,0 14,2 17,3 17,9 16,7 3 2 14 7 SSW 1015,5 24 0 0,0
11.07.2018 09:00:00 13,1 11,3 13,2 16,8 18,0 16,7 8 4 15 8 ENE 1015,4 13 0 0,0
11.07.2018 08:00:00 13,2 11,7 13,6 16,4 18,1 16,7 2 1 5 3 ENE 1015,2 16 0 0,0
11.07.2018 07:00:00 12,6 12,1 12,7 16,2 18,3 16,7 3 1 4 2 SW 1015,2 7 0 1,1
11.07.2018 06:00:00 12,5 11,7 12,5 16,4 18,6 16,7 0 0 6 3 N 1015,2 4,7 0 0,3
11.07.2018 05:00:00 12,5 11,7 12,5 16,6 18,8 16,7 4 2 6 3 E 1015,1 12 0 1,2
11.07.2018 04:00:00 12,7 11,6 12,8 17,0 19,0 16,7 2 1 14 7 SSW 1015,2 11 0 0,5
11.07.2018 03:00:00 13,5 12,7 13,5 17,4 19,3 16,7 4 2 13 7 ENE 1014,8 7 0 0,0
11.07.2018 02:00:00 13,6 12,9 13,6 17,7 19,6 16,7 3 2 6 3 E 1015,1 6 0 0,3
11.07.2018 01:00:00 13,5 12,6 13,3 18,0 19,9 16,7 3 1 9 5 SSE 1015,7 3,5 0 0,0
11.07.2018 00:00:00 13,8 12,7 13,5 18,3 20,2 16,7 3 2 8 5 ENE 1015,6 13 0 0,1
10.07.2018 23:00:00 14,7 12,7 14,1 19,1 20,6 16,7 4 2 14 7 E 1015,7 21 0 0,1
10.07.2018 22:00:00 15,4 12,0 15,2 19,7 20,9 16,7 7 4 23 13 ENE 1015,6 29 0 0,0
10.07.2018 21:00:00 16,1 12,0 15,5 20,6 21,1 16,7 12 6 30 16 NNE 1014,7 30 0 0,0
10.07.2018 20:00:00 16,9 12,1 16,8 22,1 21,2 16,7 12 7 38 21 NE 1014,0 32 12 0,0
10.07.2018 19:00:00 20,4 11,3 22,7 22,9 21,2 16,7 4 2 8 4 SE 1012,5 56 17 0,0
10.07.2018 18:00:00 19,4 12,8 20,2 23,0 21,2 16,7 2 1 10 5 S 1012,8 53 6 0,0

tt = temperature
td = dewpoint
tt 5cm = temperature 5cm
tt -5cm = temperature -5cm
tt -20cm = temperature -20cm
tt -100cm = temperature -100cm
ff = wind speed
fx = gusts
dd = wind direction
ppp = reduced air pressure
vv = visibility
sd = sunshine duration
rr = precipitation

Next stations